Location: Newark
(50.9000°N, 14.8333°E)
Time: 18:21:16
(UTC+00:00)

N. Korean satellite - Pass Details

Date: 04 November 2020
Orbit: 453 x 503 km, 97.2° (Epoch: 04 December)

Event Time Altitude Azimuth Distance (km) Brightness Sun altitude
Rises 04:59:46 0° 9° (N) 2,481 10.1 -9.6°
Reaches altitude 10° 05:01:50 10° 5° (N) 1,603 9.1 -9.3°
Maximum altitude 05:05:12 56° 287° (WNW) 548 6.5 -8.7°
Drops below altitude 10° 05:08:33 10° 208° (SSW) 1,597 9.0 -8.2°
Sets 05:10:37 0° 205° (SSW) 2,472 10.1 -7.9°
